Content
SEND FEEDBACK

Daily
Averages
Monthly
Summary
United States of America

ROCKWOOD, TENNESSEE


Home > North America > United States > Tennessee
Elevation: 931 feet     Latitude: 35 51N     Longitude: 084 42W

WEATHER
 
SELECT A DAY
Number of Records: 216,920;   Date Range: 1/1/95 - 9/22/14
 
SHARE

PRINT THIS DATA

[ ← Previous Day ]
WEATHER ALMANAC - FEBRUARY 13, 2013
[ Next Day → ]
[ °C ]   °F
Weather ElementAverageHighLow
Temperature38.7 °F44.6 °F (9:15 am)35.1 °F (1:53 pm)
Dewpoint35.5 °F41 °F (8:53 am)30.2 °F (4:09 pm)
Humidity88.7 %100 % (4:20 am)81 % (10:05 am)
Barometer29.80 in30.01 in (11:53 pm)29.68 in (5:36 am)
Wind Speed5.7 mph15 mph (11:25 am)
Wind Gust25.3 mph (12:51 pm)
Weather ElementAverage
Visibility6.7 mi
Wind DirectionS (176.7 °)

Weather ElementTotal
Precipitation0.73 in
Heating Degree Days25.2 (Base 65)
Averaged from 55 records on February 13, 2013
WEATHER CONDITIONS BREAKOUT
WIND DIRECTION BREAKOUT
WEATHER BY HOUR - FEBRUARY 13, 2013
[ °C ]   °F
Local TimeTemperatureDewpointHumidityBarometerVisibilityWind DirectionWind SpeedGust SpeedPrecipitationEventsConditions
1:53 AM41.0 °F37.0 °F86 %29.75 in8.0 miVariable4.6 mph0.04 inRainLight Rain
2:40 AM39.2 °F37.4 °F93 %29.73 in3.0 miEast (100°)4.6 mph0.13 inRainRain
2:49 AM39.2 °F37.4 °F93 %29.73 in5.0 miEast (100°)5.8 mph0.14 inRainLight Rain
2:53 AM39.9 °F37.9 °F93 %29.73 in10.0 miVariable4.6 mph0.14 inOvercast
3:08 AM39.2 °F37.4 °F93 %29.73 in6.0 miEast (100°)4.6 mph0.00 inOvercast
3:53 AM39.9 °F37.9 °F93 %29.70 in4.0 miESE (110°)4.6 mph0.01 inOvercast
4:20 AM39.2 °F39.2 °F100 %29.70 in3.0 miCalm0.00 inOvercast
4:37 AM41.0 °F37.4 °F87 %29.69 in2.5 miVariable4.6 mph0.00 inOvercast
4:53 AM41.0 °F39.0 °F93 %29.70 in2.5 miCalm0.01 inRainLight Rain
5:12 AM41.0 °F39.2 °F93 %29.69 in1.8 miEast (100°)4.6 mph0.01 inRainLight Rain
5:19 AM41.0 °F39.2 °F93 %29.69 in2.0 miVariable3.5 mph0.01 inRainLight Rain
5:36 AM39.2 °F39.2 °F100 %29.68 in1.8 miESE (120°)4.6 mph0.02 inOvercast
5:48 AM39.2 °F39.2 °F100 %29.68 in2.5 miCalm0.02 inOvercast
5:53 AM39.9 °F39.0 °F97 %29.70 in2.5 miSE (140°)3.5 mph0.02 inOvercast
6:27 AM39.2 °F39.2 °F100 %29.69 in1.8 miSE (130°)3.5 mph0.02 inOvercast
6:37 AM39.2 °F39.2 °F100 %29.69 in2.0 miSE (130°)3.5 mph0.02 inOvercast
6:53 AM41.0 °F39.0 °F93 %29.70 in2.5 miCalm0.03 inOvercast
7:13 AM41.0 °F39.2 °F93 %29.69 in1.5 miCalmOvercast
7:53 AM42.1 °F39.9 °F92 %29.69 in1.0 miCalm0.01 inOvercast
8:53 AM43.0 °F41.0 °F93 %29.70 in1.2 miVariable5.8 mph0.01 inOvercast
9:15 AM44.6 °F41.0 °F87 %29.70 in3.0 miWSW (240°)6.9 mph0.01 inRainLight Rain
9:22 AM44.6 °F41.0 °F87 %29.70 in2.5 miSW (230°)6.9 mph0.02 inRainLight Rain
9:30 AM44.6 °F41.0 °F87 %29.70 in3.0 miWSW (240°)8.1 mph0.02 inRainLight Rain
9:53 AM43.0 °F39.9 °F89 %29.71 in7.0 miWSW (240°)8.1 mph17.3 mph0.03 inRainLight Rain
10:05 AM44.6 °F39.2 °F81 %29.71 in10.0 miSW (230°)8.1 mph0.00 inOvercast
10:15 AM42.8 °F39.2 °F87 %29.71 in9.0 miWSW (250°)11.5 mph21.9 mph0.00 inOvercast
10:53 AM43.0 °F39.9 °F89 %29.72 in10.0 miWNW (290°)11.5 mph18.4 mph0.01 inOvercast
11:13 AM42.8 °F39.2 °F87 %29.73 in10.0 miWest (270°)9.2 mph18.4 mphOvercast
11:25 AM42.8 °F37.4 °F81 %29.74 in9.0 miWest (270°)15.0 mph21.9 mphOvercast
11:53 AM39.0 °F36.0 °F89 %29.77 in4.0 miNW (310°)12.7 mph23.0 mphOvercast
12:51 PM37.4 °F32.0 °F81 %29.77 in10.0 miNNW (330°)13.8 mph25.3 mphOvercast
12:53 PM37.0 °F32.0 °F82 %29.78 in10.0 miNW (320°)15.0 mph25.3 mphOvercast
1:34 PM35.6 °F32.0 °F87 %29.79 in10.0 miNW (320°)10.4 mph24.2 mphOvercast
1:53 PM35.1 °F32.0 °F89 %29.82 in8.0 miNNW (340°)12.7 mph20.7 mphOvercast
2:53 PM35.1 °F32.0 °F89 %29.84 in7.0 miNNW (340°)6.9 mphOvercast
3:20 PM35.6 °F32.0 °F87 %29.83 in10.0 miNNW (330°)6.9 mphOvercast
3:53 PM36.0 °F32.0 °F86 %29.87 in10.0 miNW (320°)11.5 mphOvercast
4:09 PM35.6 °F30.2 °F81 %29.86 in10.0 miNNW (330°)9.2 mph16.1 mphOvercast
4:44 PM35.6 °F30.2 °F81 %29.88 in8.0 miNNW (330°)8.1 mphOvercast
4:53 PM35.1 °F32.0 °F89 %29.90 in7.0 miNNW (330°)6.9 mphOvercast
5:00 PM35.6 °F32.0 °F87 %29.88 in7.0 miNNW (330°)5.8 mphOvercast
5:53 PM35.1 °F30.9 °F85 %29.92 in9.0 miCalmOvercast
6:04 PM35.6 °F30.2 °F81 %29.90 in10.0 miWNW (300°)4.6 mphOvercast
6:24 PM35.6 °F30.2 °F81 %29.91 in10.0 miWest (280°)4.6 mphOvercast
6:53 PM35.1 °F30.9 °F85 %29.95 in10.0 miNW (320°)4.6 mphOvercast
7:14 PM35.6 °F30.2 °F81 %29.93 in10.0 miWNW (300°)5.8 mphOvercast
7:53 PM35.1 °F30.9 °F85 %29.95 in10.0 miWNW (290°)4.6 mphOvercast
8:53 PM35.1 °F30.9 °F85 %29.96 in10.0 miCalmOvercast
9:53 PM35.1 °F30.9 °F85 %29.98 in10.0 miWSW (250°)4.6 mphOvercast
10:53 PM35.1 °F32.0 °F89 %29.99 in10.0 miWest (260°)3.5 mphOvercast
10:59 PM35.6 °F30.2 °F81 %29.97 in10.0 miWSW (250°)3.5 mphOvercast
11:15 PM35.6 °F32.0 °F87 %29.97 in10.0 miCalmOvercast
11:28 PM35.6 °F32.0 °F87 %29.97 in10.0 miVariable3.5 mphOvercast
11:50 PM35.6 °F32.0 °F87 %29.98 in10.0 miWSW (250°)4.6 mphOvercast
11:53 PM35.1 °F32.0 °F89 %30.01 in10.0 miCalmOvercast
Hourly data recorded from KCSV, located miles away from Rockwood, Tennessee







STORIES FROM OUR PARTNERS